{"data":{"norad_id":59269,"intl_designator":"2024-050R","name":"STARLINK-31609","alt_names":[],"object_type":"PAYLOAD","status":"ACTIVE","operator":null,"country":"US","launch_date":"2024-03-19","launch_site_code":"AFWTR","launch_vehicle":null,"mission":null,"orbit_class":"UNKNOWN","rcs_meters":null,"size_class":null,"mass_kg":null,"dimensions":null,"purposes":["comms"],"wikipedia_slug":null,"has_3d_model":false,"image_url":null,"decayed_at":null,"tle_current":{"epoch":"2026-05-24T19:53:14.374176Z","epoch_age_seconds":100341,"freshness":"FRESH","line1":"1 59269U 24050R   26144.82863859  .00001336  00000+0  57245-4 0  9997","line2":"2 59269  53.1592 187.4862 0001034  90.8067 269.3052 15.30184667122207","mean_motion":15.30184667,"eccentricity":0.0001034,"inclination_deg":53.1592,"raan_deg":187.4862,"arg_perigee_deg":90.8067,"mean_anomaly_deg":269.3052,"bstar":5.7245e-5,"rev_number":12220,"period_min":94.10628867581,"perigee_km":474.55221003799,"apogee_km":475.96949271365,"semimajor_km":6853.3978513758,"source":"CELESTRAK","updated_at":"2026-05-25T13:38:18.876905Z"}}}